Delaware, OH

5:35 AM EDT on April 19, 2018 (GMT -0400)
Delaware Municipal

Weather History for KDLZ - December, 2013

Change the Weather History Date:

Friday, December 27, 2013

  Actual Average Record
Temperature  
Mean Temperature 36 °F -  
Max Temperature 42 °F 32 °F 64 °F (1959)
Min Temperature 30 °F 17 °F -16 °F (1950)
Degree Days  
Heating Degree Days 29    
Moisture  
Dew Point 26 °F    
Average Humidity 70    
Maximum Humidity 81    
Minimum Humidity 57    
Precipitation  
Precipitation 0.00 in - - ()
Sea Level Pressure  
Sea Level Pressure 30.30 in    
Wind  
Wind Speed 8 mph (SW)    
Max Wind Speed 12 mph    
Max Gust Speed 17 mph    
Visibility 10 miles    
Events      
Averages and records for this station are not official NWS values.
T = Trace of Precipitation, MM = Missing Value Source: NWS Daily Summary

Daily Weather History Graph

Daily Weather History Graph

Search for Another Location

Airport or City:

Astronomy

Dec. 27, 2013 Rise Set
Actual Time 7:54 AM EST 5:13 PM EST
Civil Twilight 7:23 AM EST 5:44 PM EST
Nautical Twilight 6:49 AM EST 6:18 PM EST
Astronomical Twilight 6:16 AM EST 6:51 PM EST
Moon 2:24 AM EST (12/27) 1:23 PM EST (12/27)
Length of Visible Light 10h 20m
Length of Day
9h 19m
Waning Crescent, 28% of the Moon is Illuminated
Dec 27
Waning Crescent
Jan 1
New
Jan 7
First Quarter
Jan 15
Full
Jan 24
Last Quarter

Hourly Weather History & Observations

Time (EST) Temp. Windchill Dew Point Humidity Pressure Visibility Wind Dir Wind Speed Gust Speed Precip Events Conditions
12:19 AM 30.2 °F 23.4 °F 21.2 °F 69% 30.30 in 10.0 mi SSW 6.9 mph - N/A   Overcast
12:39 AM 32.0 °F 24.8 °F 21.2 °F 64% 30.30 in 10.0 mi SSW 8.1 mph - N/A   Overcast
12:59 AM 32.0 °F 25.6 °F 21.2 °F 64% 30.30 in 10.0 mi SSW 6.9 mph - N/A   Overcast
1:19 AM 32.0 °F 24.2 °F 23.0 °F 69% 30.30 in 10.0 mi SSW 9.2 mph - N/A   Overcast
1:39 AM 32.0 °F 23.6 °F 23.0 °F 69% 30.30 in 10.0 mi SSW 10.4 mph - N/A   Overcast
1:59 AM 32.0 °F 23.6 °F 23.0 °F 69% 30.30 in 10.0 mi SW 10.4 mph - N/A   Overcast
2:19 AM 32.0 °F 24.2 °F 23.0 °F 69% 30.30 in 10.0 mi SW 9.2 mph - N/A   Overcast
2:39 AM 32.0 °F 23.0 °F 23.0 °F 69% 30.30 in 10.0 mi SW 11.5 mph 17.3 mph N/A   Overcast
2:59 AM 32.0 °F 23.6 °F 23.0 °F 69% 30.30 in 10.0 mi SW 10.4 mph - N/A   Overcast
3:19 AM 32.0 °F 23.6 °F 23.0 °F 69% 30.30 in 10.0 mi SW 10.4 mph 17.3 mph N/A   Overcast
3:39 AM 32.0 °F 23.6 °F 23.0 °F 69% 30.30 in 10.0 mi SW 10.4 mph - N/A   Overcast
3:59 AM 32.0 °F 23.6 °F 23.0 °F 69% 30.30 in 10.0 mi SW 10.4 mph 16.1 mph N/A   Overcast
4:19 AM 32.0 °F 24.2 °F 23.0 °F 69% 30.29 in 10.0 mi SW 9.2 mph - N/A   Overcast
4:39 AM 32.0 °F 24.8 °F 23.0 °F 69% 30.29 in 10.0 mi SW 8.1 mph - N/A   Overcast
4:59 AM 32.0 °F 24.8 °F 23.0 °F 69% 30.29 in 10.0 mi SW 8.1 mph - N/A   Overcast
5:19 AM 32.0 °F 25.6 °F 24.8 °F 75% 30.29 in 10.0 mi SSW 6.9 mph - N/A   Overcast
5:39 AM 32.0 °F 24.8 °F 24.8 °F 75% 30.29 in 10.0 mi SSW 8.1 mph - N/A   Overcast
5:59 AM 32.0 °F 27.5 °F 23.0 °F 69% 30.29 in 10.0 mi SW 4.6 mph - N/A   Overcast
6:19 AM 32.0 °F 24.8 °F 23.0 °F 69% 30.29 in 10.0 mi SW 8.1 mph - N/A   Overcast
6:39 AM 32.0 °F 24.8 °F 23.0 °F 69% 30.29 in 10.0 mi SW 8.1 mph - N/A   Overcast
6:59 AM 32.0 °F 25.6 °F 23.0 °F 69% 30.30 in 10.0 mi SW 6.9 mph - N/A   Overcast
7:19 AM 32.0 °F 25.6 °F 23.0 °F 69% 30.30 in 10.0 mi SW 6.9 mph - N/A   Overcast
7:39 AM 32.0 °F 26.4 °F 23.0 °F 69% 30.30 in 10.0 mi SSW 5.8 mph - N/A   Overcast
7:59 AM 32.0 °F 26.4 °F 23.0 °F 69% 30.31 in 10.0 mi SSW 5.8 mph - N/A   Overcast
8:19 AM 32.0 °F 26.4 °F 23.0 °F 69% 30.31 in 10.0 mi SW 5.8 mph - N/A   Mostly Cloudy
8:39 AM 32.0 °F 24.2 °F 23.0 °F 69% 30.32 in 10.0 mi SW 9.2 mph - N/A   Mostly Cloudy
8:59 AM 32.0 °F 25.6 °F 23.0 °F 69% 30.33 in 10.0 mi SW 6.9 mph - N/A   Mostly Cloudy
9:19 AM 32.0 °F 26.4 °F 23.0 °F 69% 30.35 in 10.0 mi WSW 5.8 mph - N/A   Mostly Cloudy
9:39 AM 32.0 °F 25.6 °F 23.0 °F 69% 30.35 in 10.0 mi WSW 6.9 mph - N/A   Overcast
9:59 AM 33.8 °F 27.0 °F 23.0 °F 65% 30.36 in 10.0 mi WSW 8.1 mph - N/A   Overcast
10:19 AM 33.8 °F 28.6 °F 23.0 °F 65% 30.37 in 10.0 mi WSW 5.8 mph - N/A   Overcast
10:39 AM 33.8 °F 26.4 °F 24.8 °F 70% 30.37 in 10.0 mi WSW 9.2 mph - N/A   Scattered Clouds
10:59 AM 35.6 °F 28.6 °F 24.8 °F 65% 30.37 in 10.0 mi WSW 9.2 mph - N/A   Clear
11:19 AM 35.6 °F 29.2 °F 24.8 °F 65% 30.36 in 10.0 mi SW 8.1 mph - N/A   Clear
11:39 AM 37.4 °F 31.4 °F 26.6 °F 65% 30.35 in 10.0 mi WSW 8.1 mph - N/A   Clear
11:59 AM 37.4 °F 32.1 °F 26.6 °F 65% 30.35 in 10.0 mi SW 6.9 mph - N/A   Clear
12:19 PM 37.4 °F 32.8 °F 26.6 °F 65% 30.34 in 10.0 mi SW 5.8 mph - N/A   Clear
12:39 PM 37.4 °F 32.1 °F 26.6 °F 65% 30.33 in 10.0 mi SW 6.9 mph - N/A   Clear
12:59 PM 39.2 °F 35.0 °F 28.4 °F 65% 30.33 in 10.0 mi SW 5.8 mph - N/A   Clear
1:19 PM 39.2 °F 33.6 °F 28.4 °F 65% 30.32 in 10.0 mi SSW 8.1 mph - N/A   Clear
1:39 PM 41.0 °F 34.7 °F 28.4 °F 61% 30.32 in 10.0 mi SW 10.4 mph - N/A   Clear
1:59 PM 41.0 °F 35.8 °F 28.4 °F 61% 30.31 in 10.0 mi WSW 8.1 mph - N/A   Clear
2:19 PM 41.0 °F 35.8 °F 28.4 °F 61% 30.31 in 10.0 mi SSW 8.1 mph - N/A   Clear
2:39 PM 41.0 °F 34.3 °F 28.4 °F 61% 30.30 in 10.0 mi SW 11.5 mph - N/A   Scattered Clouds
2:59 PM 41.0 °F 35.8 °F 28.4 °F 61% 30.29 in 10.0 mi SSW 8.1 mph - N/A   Scattered Clouds
3:19 PM 42.8 °F 36.6 °F 30.2 °F 61% 30.29 in 10.0 mi SSW 11.5 mph - N/A   Clear
3:39 PM 42.8 °F 36.6 °F 30.2 °F 61% 30.28 in 10.0 mi SSW 11.5 mph - N/A   Clear
3:59 PM 42.8 °F 38.0 °F 28.4 °F 57% 30.29 in 10.0 mi SSW 8.1 mph - N/A   Clear
4:19 PM 41.0 °F 35.2 °F 28.4 °F 61% 30.29 in 10.0 mi SW 9.2 mph - N/A   Clear
4:39 PM 41.0 °F 34.3 °F 28.4 °F 61% 30.29 in 10.0 mi SSW 11.5 mph - N/A   Clear
4:59 PM 39.2 °F 33.0 °F 28.4 °F 65% 30.29 in 10.0 mi SSW 9.2 mph - N/A   Clear
5:20 PM 37.4 °F 31.4 °F 28.4 °F 70% 30.29 in 10.0 mi SSW 8.1 mph - N/A   Clear
5:39 PM 35.6 °F 30.7 °F 28.4 °F 75% 30.29 in 10.0 mi SSW 5.8 mph - N/A   Clear
5:59 PM 35.6 °F 29.9 °F 28.4 °F 75% 30.28 in 10.0 mi South 6.9 mph - N/A   Clear
6:20 PM 35.6 °F 29.9 °F 28.4 °F 75% 30.28 in 10.0 mi South 6.9 mph - N/A   Clear
6:39 PM 33.8 °F 27.7 °F 28.4 °F 81% 30.28 in 10.0 mi SSW 6.9 mph - N/A   Clear
6:59 PM 33.8 °F 27.7 °F 28.4 °F 81% 30.28 in 10.0 mi South 6.9 mph - N/A   Clear
7:20 PM 33.8 °F 27.7 °F 28.4 °F 81% 30.28 in 10.0 mi South 6.9 mph - N/A   Clear
7:39 PM 33.8 °F 28.6 °F 28.4 °F 81% 30.28 in 10.0 mi South 5.8 mph - N/A   Clear
7:59 PM 33.8 °F 28.6 °F 28.4 °F 81% 30.28 in 10.0 mi South 5.8 mph - N/A   Clear
8:19 PM 33.8 °F 28.6 °F 28.4 °F 81% 30.27 in 10.0 mi SSW 5.8 mph - N/A   Clear
8:39 PM 33.8 °F 27.7 °F 28.4 °F 81% 30.27 in 10.0 mi SSW 6.9 mph - N/A   Clear
8:59 PM 33.8 °F 27.0 °F 28.4 °F 81% 30.27 in 10.0 mi South 8.1 mph - N/A   Clear
9:19 PM 33.8 °F 27.7 °F 28.4 °F 81% 30.26 in 10.0 mi South 6.9 mph - N/A   Clear
9:39 PM 32.0 °F 24.8 °F 26.6 °F 80% 30.26 in 10.0 mi SSW 8.1 mph - N/A   Clear
9:59 PM 33.8 °F 26.4 °F 28.4 °F 81% 30.26 in 10.0 mi SSW 9.2 mph - N/A   Clear
10:19 PM 33.8 °F 26.4 °F 28.4 °F 81% 30.26 in 10.0 mi SSW 9.2 mph - N/A   Clear
10:39 PM 33.8 °F 25.3 °F 28.4 °F 81% 30.26 in 10.0 mi SSW 11.5 mph - N/A   Clear
10:59 PM 33.8 °F 25.8 °F 28.4 °F 81% 30.26 in 10.0 mi SSW 10.4 mph - N/A   Clear
11:19 PM 33.8 °F 25.8 °F 28.4 °F 81% 30.26 in 10.0 mi SSW 10.4 mph - N/A   Clear
11:39 PM 33.8 °F 26.4 °F 28.4 °F 81% 30.25 in 10.0 mi SSW 9.2 mph - N/A   Clear
11:59 PM 33.8 °F 26.4 °F 28.4 °F 81% 30.24 in 10.0 mi SSW 9.2 mph - N/A   Clear